Location: Unspecified
(42.9300°N, 71.1866°W)
Time: 21:48:50
(UTC-04:00)

Cosmos 2058 - Visible Passes

Search period start: 18 April 2014 00:00
Search period end: 28 April 2014 00:00
Orbit: 572 x 595 km, 82.5° (Epoch: 18 April)

Date Brightness Start Highest point End Pass type
(mag) Time Alt. Az. Time Alt. Az. Time Alt. Az.
18 Apr 6.1 04:38:05 10° ESE 04:40:05 13° E 04:42:06 10° NE visible
19 Apr 5.8 04:43:12 10° SE 04:46:08 19° E 04:49:06 10° NE visible
20 Apr 5.3 04:48:41 10° SE 04:52:13 26° E 04:55:45 10° NNE visible
21 Apr 4.7 04:54:24 10° SSE 04:58:18 36° E 05:02:13 10° NNE visible
22 Apr 3.9 05:00:17 10° S 05:04:25 52° E 05:08:34 10° NNE visible
23 Apr 3.2 05:06:18 10° S 05:10:33 76° E 05:14:48 10° NNE visible
24 Apr 3.0 05:12:27 10° SSW 05:16:42 75° W 05:20:58 10° N visible
25 Apr 5.9 03:44:14 10° ESE 03:46:15 13° E 03:48:16 10° NE visible
26 Apr 5.6 03:49:17 10° SE 03:52:14 19° E 03:55:11 10° NE visible
27 Apr 5.1 03:54:44 10° SE 03:58:15 26° E 04:01:46 10° NNE visible
